Weather History for KPVC - September, 2013

Change the Weather History Date:

Wednesday, September 18, 2013

  Actual Average Record
Temperature  
Mean Temperature 54 °F -  
Max Temperature 68 °F 67 °F 79 °F (1951)
Min Temperature 39 °F 56 °F 39 °F (2013)
Degree Days  
Heating Degree Days 12    
Growing Degree Days 4 (Base 50)    
Moisture  
Dew Point 46 °F    
Average Humidity 68    
Maximum Humidity 93    
Minimum Humidity 35    
Precipitation  
Precipitation 3.12 in - - ()
Sea Level Pressure  
Sea Level Pressure 30.25 in    
Wind  
Wind Speed 6 mph (WSW)    
Max Wind Speed 14 mph    
Max Gust Speed -    
Visibility 10 miles    
Events      
Averages and records for this station are not official NWS values.
T = Trace of Precipitation, MM = Missing Value Source: NWS Daily Summary

Daily Weather History Graph

Daily Weather History Graph

Search for Another Location

Airport or City:

Trip Planner

Search our weather history database for the weather conditions in past years. The results will help you decide how hot, cold, wet, or windy it might be!

Date:

Astronomy

Sep. 18, 2013 Rise Set
Actual Time 6:24 AM EDT 6:44 PM EDT
Civil Twilight 5:56 AM EDT 7:12 PM EDT
Nautical Twilight 5:23 AM EDT 7:45 PM EDT
Astronomical Twilight 4:49 AM EDT 8:19 PM EDT
Moon 6:05 PM EDT (9/18) 5:22 AM EDT (9/18)
Length of Visible Light 13h 16m
Length of Day
12h 20m
Waxing Gibbous, 99% of the Moon is Illuminated
Sep 18
Waxing Gibbous
Sep 19
Full
Sep 26
Last Quarter
Oct 4
New
Oct 11
First Quarter

Hourly Weather History & Observations

Time (EDT) Temp. Windchill Dew Point Humidity Pressure Visibility Wind Dir Wind Speed Gust Speed Precip Events Conditions
12:15 AM 39.2 °F 35.9 °F 35.6 °F 87% 30.33 in 10.0 mi SW 4.6 mph - N/A   Clear
12:35 AM 39.2 °F 37.0 °F 37.4 °F 93% 30.33 in 10.0 mi WSW 3.5 mph - N/A   Clear
12:55 AM 42.8 °F 39.3 °F 37.4 °F 81% 30.32 in 10.0 mi West 5.8 mph - N/A   Clear
1:15 AM 41.0 °F 38.0 °F 37.4 °F 87% 30.32 in 10.0 mi WSW 4.6 mph - N/A   Clear
1:35 AM 42.8 °F 40.1 °F 37.4 °F 81% 30.32 in 10.0 mi West 4.6 mph - N/A   Clear
1:55 AM 42.8 °F 40.1 °F 41.0 °F 93% 30.32 in 10.0 mi West 4.6 mph - 0.13 in   Clear
2:15 AM 44.6 °F 43.1 °F 39.2 °F 81% 30.31 in 10.0 mi West 3.5 mph - N/A   Clear
2:35 AM 42.8 °F 41.1 °F 39.2 °F 87% 30.31 in 10.0 mi West 3.5 mph - 0.04 in   Clear
2:55 AM 42.8 °F 41.1 °F 39.2 °F 87% 30.31 in 10.0 mi West 3.5 mph - 0.04 in   Clear
3:15 AM 42.8 °F 40.1 °F 39.2 °F 87% 30.31 in 10.0 mi West 4.6 mph - 0.02 in   Clear
3:35 AM 42.8 °F 41.1 °F 37.4 °F 81% 30.30 in 10.0 mi West 3.5 mph - 0.06 in   Clear
3:55 AM 42.8 °F 40.1 °F 37.4 °F 81% 30.30 in 10.0 mi West 4.6 mph - N/A   Clear
4:16 AM 42.8 °F 39.3 °F 39.2 °F 87% 30.29 in 10.0 mi West 5.8 mph - N/A   Clear
4:35 AM 44.6 °F 40.7 °F 42.8 °F 93% 30.29 in 10.0 mi West 6.9 mph - N/A   Clear
4:55 AM 51.8 °F - 48.2 °F 88% 30.29 in 10.0 mi West 5.8 mph - N/A   Clear
5:15 AM 46.4 °F 44.3 °F 42.8 °F 87% 30.29 in 10.0 mi WNW 4.6 mph - N/A   Clear
5:35 AM 53.6 °F - 48.2 °F 82% 30.30 in 10.0 mi WNW 6.9 mph - N/A   Clear
5:55 AM 53.6 °F - 48.2 °F 82% 30.30 in 10.0 mi WNW 5.8 mph - 0.06 in   Clear
6:15 AM 53.6 °F - 48.2 °F 82% 30.30 in 10.0 mi WNW 6.9 mph - N/A   Clear
6:35 AM 53.6 °F - 48.2 °F 82% 30.30 in 10.0 mi NW 8.1 mph - 0.04 in   Clear
6:55 AM 55.4 °F - 48.2 °F 77% 30.31 in 10.0 mi NW 5.8 mph - N/A   Clear
7:15 AM 55.4 °F - 48.2 °F 77% 30.31 in 10.0 mi NW 5.8 mph - N/A   Clear
7:35 AM 57.2 °F - 48.2 °F 72% 30.31 in 10.0 mi NW 6.9 mph - N/A   Clear
7:55 AM 57.2 °F - 50.0 °F 77% 30.31 in 10.0 mi NW 6.9 mph - N/A   Clear
8:15 AM 57.2 °F - 50.0 °F 77% 30.31 in 10.0 mi WNW 8.1 mph - N/A   Clear
8:35 AM 59.0 °F - 51.8 °F 77% 30.31 in 10.0 mi WNW 5.8 mph - N/A   Clear
8:55 AM 60.8 °F - 50.0 °F 68% 30.31 in 10.0 mi WNW 6.9 mph - N/A   Clear
9:15 AM 60.8 °F - 50.0 °F 68% 30.31 in 10.0 mi WNW 8.1 mph - N/A   Clear
9:35 AM 60.8 °F - 48.2 °F 63% 30.31 in 10.0 mi WNW 5.8 mph - N/A   Clear
9:55 AM 60.8 °F - 51.8 °F 72% 30.30 in 10.0 mi WNW 9.2 mph - 0.04 in   Clear
10:15 AM 60.8 °F - 48.2 °F 63% 30.30 in 10.0 mi WNW 8.1 mph - 0.03 in   Clear
10:35 AM 60.8 °F - 50.0 °F 68% 30.30 in 10.0 mi WNW 6.9 mph - 0.08 in   Clear
11:15 AM 62.6 °F - 48.2 °F 59% 30.29 in 10.0 mi NW 6.9 mph - N/A   Clear
11:35 AM 62.6 °F - 46.4 °F 55% 30.29 in 10.0 mi WNW 4.6 mph - N/A   Clear
11:55 AM 64.4 °F - 46.4 °F 52% 30.28 in 10.0 mi WNW 5.8 mph - N/A   Clear
12:15 PM 66.2 °F - 46.4 °F 49% 30.28 in 10.0 mi West 5.8 mph - N/A   Clear
12:35 PM 66.2 °F - 44.6 °F 46% 30.27 in 10.0 mi SW 6.9 mph - N/A   Clear
12:55 PM 66.2 °F - 42.8 °F 43% 30.26 in 10.0 mi WSW 5.8 mph - 0.58 in   Clear
1:15 PM 66.2 °F - 42.8 °F 43% 30.26 in 10.0 mi WSW 6.9 mph - 0.01 in   Clear
1:35 PM 68.0 °F - 39.2 °F 35% 30.25 in 10.0 mi SW 6.9 mph - 0.18 in   Clear
1:55 PM 68.0 °F - 39.2 °F 35% 30.24 in 10.0 mi SSW 6.9 mph - 0.28 in   Clear
2:15 PM 68.0 °F - 42.8 °F 40% 30.23 in 10.0 mi SSW 5.8 mph - 0.40 in   Clear
2:35 PM 68.0 °F - 41.0 °F 37% 30.22 in 10.0 mi SW 8.1 mph - 0.64 in   Clear
2:55 PM 68.0 °F - 42.8 °F 40% 30.21 in 10.0 mi South 5.8 mph - 0.80 in   Clear
3:15 PM 68.0 °F - 39.2 °F 35% 30.20 in 10.0 mi SSW 6.9 mph - 0.06 in   Clear
3:35 PM 68.0 °F - 41.0 °F 37% 30.20 in 10.0 mi SSW 5.8 mph - 0.08 in   Clear
3:55 PM 68.0 °F - 41.0 °F 37% 30.20 in 10.0 mi South 9.2 mph - 0.08 in   Clear
4:15 PM 68.0 °F - 41.0 °F 37% 30.18 in 10.0 mi South 8.1 mph - 0.03 in   Clear
4:35 PM 66.2 °F - 46.4 °F 49% 30.18 in 10.0 mi South 9.2 mph - 0.29 in   Clear
4:55 PM 66.2 °F - 44.6 °F 46% 30.18 in 10.0 mi SSW 8.1 mph - 0.34 in   Clear
5:15 PM 66.2 °F - 46.4 °F 49% 30.18 in 10.0 mi South 9.2 mph - 0.01 in   Clear
5:35 PM 64.4 °F - 48.2 °F 56% 30.18 in 10.0 mi SSW 8.1 mph - 0.09 in   Clear
5:55 PM 64.4 °F - 51.8 °F 64% 30.18 in 10.0 mi SSW 9.2 mph - 0.09 in   Clear
6:15 PM 62.6 °F - 50.0 °F 63% 30.17 in 10.0 mi SSW 9.2 mph - 0.15 in   Clear
6:35 PM 62.6 °F - 51.8 °F 68% 30.17 in 10.0 mi SSW 10.4 mph - 0.21 in   Clear
6:55 PM 60.8 °F - 51.8 °F 72% 30.17 in 10.0 mi SSW 11.5 mph - 0.22 in   Clear
7:15 PM 60.8 °F - 51.8 °F 72% 30.17 in 10.0 mi SW 12.7 mph - 0.02 in   Clear
7:35 PM 60.8 °F - 51.8 °F 72% 30.17 in 10.0 mi SW 13.8 mph - 0.03 in   Clear
7:55 PM 60.8 °F - 51.8 °F 72% 30.17 in 10.0 mi SW 13.8 mph - 0.04 in   Clear
8:15 PM 59.0 °F - 51.8 °F 77% 30.17 in 10.0 mi SW 12.7 mph - 0.01 in   Clear
8:35 PM 59.0 °F - 50.0 °F 72% 30.17 in 10.0 mi SW 13.8 mph - 0.04 in   Clear
8:55 PM 59.0 °F - 50.0 °F 72% 30.17 in 10.0 mi SW 12.7 mph - 0.07 in   Clear
9:15 PM 57.2 °F - 48.2 °F 72% 30.17 in 10.0 mi SW 12.7 mph - 0.01 in   Clear
9:35 PM 57.2 °F - 50.0 °F 77% 30.17 in 10.0 mi SW 12.7 mph - 0.04 in   Clear
9:55 PM 57.2 °F - 48.2 °F 72% 30.17 in 10.0 mi WSW 11.5 mph - 0.14 in   Clear
10:15 PM 57.2 °F - 48.2 °F 72% 30.17 in 10.0 mi WSW 11.5 mph - 0.01 in   Clear
10:35 PM 57.2 °F - 50.0 °F 77% 30.17 in 10.0 mi WSW 10.4 mph - 0.02 in   Clear
10:55 PM 57.2 °F - 50.0 °F 77% 30.17 in 10.0 mi WSW 9.2 mph - 0.02 in   Clear
11:15 PM 57.2 °F - 48.2 °F 72% 30.17 in 10.0 mi WSW 9.2 mph - 0.01 in   Clear
11:35 PM 57.2 °F - 48.2 °F 72% 30.16 in 10.0 mi WSW 9.2 mph - 0.01 in   Clear
11:55 PM 55.4 °F - 48.2 °F 77% 30.15 in 10.0 mi WSW 9.2 mph - 0.01 in   Clear